Location: Dal�� Lhota
(48.7500°N, 14.0167°E)
Time: 22:43:13
(UTC+00:00)

KORONAS-FOTON - Pass Details

Date: 24 September 2020
Orbit: 506 x 532 km, 82.4° (Epoch: 25 October)

Event Time Altitude Azimuth Distance (km) Brightness Sun altitude
Rises 17:56:06 0° 355° (N) 2,691 7.7 -10.5°
Reaches altitude 10° 17:58:20 10° 2° (N) 1,795 6.7 -10.9°
Maximum altitude 18:02:08 45° 76° (ENE) 738 4.2 -11.5°
Drops below altitude 10° 18:05:53 10° 150° (SSE) 1,775 6.1 -12.1°
Enters shadow 18:06:17 - 151° (SSE) 1,933 6.3 -12.2°
